Tracking 19146 objects as of 23-Apr-2018
HD Live streaming from Space Station
objects crossing your sky now

CZ-4 DEB

Track CZ-4 DEB now!
10-day predictions


NORAD ID: 26650
Int'l Code: 1999-057LG
Perigee: 630.8 km
Apogee: 644.9 km
Inclination: 98.5 °
Period: 97.3 minutes
Semi major axis: 7008 km
RCS: 0.0056 m2 (small)
Launch date: October 14, 1999
Source: People's Republic of China (PRC)
Launch site: Taiyaun Space Center, China (TSC)

Note: This is SATELLITE DEBRIS
aabbcc
Your satellite tracking list
Your tracking list is empty




NASA's NSSDC Master Catalog

Two Line Element Set (TLE):
1 26650U 99057LG  18112.77310564 +.00000578 +00000-0 +85101-4 0  9994
2 26650 098.5239 221.3182 0010039 287.5424 224.9434 14.79553132955873
Source of the keplerian elements: AFSPC